Regional Weather Roundup
Issued by NWS Cleveland, OH

Home | Current Version | Previous Version | Graphics & Text | Print | Product List | Glossary On
Versions: 1 2 3 4 5 6 7 8 9 10 11 12 13 14 15 16 17 18 19 20 21 22 23 24 25 26 27 28 29 30 31 32 33 34 35 36 37 38 39 40 41 42 43 44 45 46 47 48 49 50
000
ASUS41 KCLE 161710
RWRCLE
OHIO REGIONAL WEATHER ROUNDUP
NATIONAL WEATHER SERVICE CLEVELAND, OH
100 PM EDT WED AUG 16 2017

NOTE: "FAIR" INDICATES FEW OR NO CLOUDS BELOW 12,000 FEET WITH NO
SIGNIFICANT WEATHER AND/OR OBSTRUCTIONS TO VISIBILITY.

OHZ001>008-015>018-024>027-034-035-043-044-161800-
   NORTHWEST OHIO

CITY           SKY/WX    TMP DP  RH WIND       PRES   REMARKS
DEFIANCE       MOSUNNY   84  65  52 SE8       30.04F
FINDLAY        PTSUNNY   85  67  54 S6        30.04F
TOLEDO EXPRESS SUNNY     81  64  56 VRB6      30.05F
TOLEDO EXEC    SUNNY     82  63  52 E8        30.07F
LIMA           CLOUDY    85  69  58 SE6       30.04F
$$

OHZ009>014-019>023-028>033-038-089-161800-
   NORTHEAST OHIO

CITY           SKY/WX    TMP DP  RH WIND       PRES   REMARKS
CLE-HOPKINS    MOSUNNY   85  60  42 CALM      30.09F
CLE-LAKEFRONT  SUNNY     78  62  57 N9        30.07F
CUY CO. ARPT   SUNNY     82  61  47 N7        30.10S
LORAIN-ELYRIA  SUNNY     79  58  48 S5        30.08F
ASHTABULA      SUNNY     78  58  49 MISG      30.10S
AKRON-CANTON   MOSUNNY   83  59  44 CALM      30.09F
WOOSTER        SUNNY     82  62  50 E5        30.09F
MANSFIELD      SUNNY     81  64  56 E5        30.09F
YOUNGSTOWN     MOSUNNY   80  58  46 N8        30.09F
$$

OHZ042-051>053-060>062-070>072-077>081-161800-
  SOUTHWEST OHIO

CITY           SKY/WX    TMP DP  RH WIND       PRES   REMARKS
CINC-COVINGTON MOSUNNY   86  70  58 VRB6      30.04F HX  90
CINC-LUNKEN    MOSUNNY   87  71  58 S5        30.03F HX  93
HAMILTON       SUNNY     89  71  55 CALM      30.04F HX  95
DAYTON         MOSUNNY   85  66  53 SW8       30.06F
WRIGHT-PAT AFB MOSUNNY   87  67  50 SW7       30.04F HX  90
DAYTON GENERAL CLOUDY    85  68  56 SW6       30.05F
WILMINGTON     MOSUNNY   84  69  60 W6        30.06F
$$

OHZ036-037-039>041-045>050-054>059-063>069-073>076-082>088-161800-
  CENTRAL AND SOUTHEAST OHIO

CITY           SKY/WX    TMP DP  RH WIND       PRES   REMARKS
COLUMBUS       PTSUNNY   84  70  62 VRB7      30.04F
OSU AIRPORT    MOSUNNY   86  70  58 VRB7      30.05F HX  90
BOLTON FIELD   MOSUNNY   82  72  69 SW5       30.06F
RICKENBACK AFB PTSUNNY   84  71  64 SW5       30.05S
NEWARK         MOSUNNY   84  70  62 VRB7      30.06F
MARION         PTSUNNY   82  66  58 CALM      30.07F
LANCASTER      MOSUNNY   85  70  60 SW5       30.06F
ZANESVILLE     SUNNY     82  68  62 VRB3      30.07F
NEW PHILLY     NOT AVBL
$$



USA.gov is the U.S. government's official web portal to all federal, state and local government web resources and services.